Location: Bennigsen
(52.2394°N, 9.6688°E)
Time: 22:13:52
(UTC+00:00)

Daily predictions for brighter satellites

Satellite Brightness Start Highest point End
(mag) Time Altitude Azimuth Time Altitude Azimuth Time Altitude Azimuth
BREEZE-M DEB (TANK) 3.2 15:39:41 10° WSW 15:42:06 53° SSE 15:47:44 10° E
ARIANE 5 R/B 3.2 15:41:54 10° ESE 15:46:19 31° ENE 15:50:49 10° N
Cosmos 2084 Rocket 3.4 15:42:47 10° NW 15:47:00 68° NE 15:51:12 10° ESE
Intercosmos 24 3.8 15:43:58 10° N 15:47:50 56° ENE 15:51:20 10° SSE
NOSS 3-2 (A) 3.4 15:43:18 10° SSW 15:48:18 62° SE 15:54:21 10° NE
Cosmos 1782 3.3 15:46:24 10° SSE 15:49:41 34° E 15:52:58 10° NNE
SL-08 ROCKET BODY 4.5 15:44:17 10° N 15:50:10 59° ENE 15:56:06 10° SSE
NOSS 3-2 (C) 4.2 15:45:55 10° S 15:50:16 29° ESE 15:55:17 10° ENE
Cosmos 1656 4.0 15:45:13 10° S 15:50:38 51° ESE 15:56:08 10° NE
Cosmos 1758 Rocket 3.6 15:46:45 10° N 15:51:01 56° ENE 15:55:14 10° SSE
Cosmos 2034 Rocket 4.4 15:45:00 10° SSW 15:51:19 71° WNW 15:57:43 10° N
Cosmos 2208 Rocket 4.0 15:47:48 10° NNW 15:53:00 85° ENE 15:58:11 10° SSE
Cosmos 2098 Rocket 3.7 15:51:08 10° SSE 15:55:07 39° E 15:59:46 10° NNE
NOSS 2-2 (E) 3.4 15:52:40 10° SSW 15:55:47 40° SE 15:58:38 10° ENE
Cosmos 724 4.4 15:50:26 10° NW 15:56:33 89° ENE 16:02:29 10° SE
Meteor 1-20 Rocket 4.4 15:52:24 10° N 15:57:40 46° ENE 16:02:54 10° SE
CZ-4C R/B 2.9 15:52:42 10° NW 15:59:20 81° NE 16:07:46 10° SE
Cosmos 2266 Rocket 4.2 15:54:43 10° N 16:00:40 46° ENE 16:06:28 10° SE
Cosmos 405 Rocket 2.6 15:59:16 10° NNW 16:02:31 70° W 16:05:42 10° S
CBERS-1 4.0 16:00:21 10° SSE 16:05:28 80° ENE 16:10:36 10° NNW
SMAP 3.2 16:02:24 10° SE 16:06:53 50° ENE 16:11:25 10° N
Cosmos 2297 Rocket 2.3 16:02:54 10° NNW 16:08:37 85° WSW 16:14:17 10° SSE
Landsat 7 4.1 16:07:20 10° SE 16:11:44 44° ENE 16:16:09 10° N
[s.n.66845] 3.6 16:11:24 10° NNE 16:12:43 13° NE 16:12:44 13° NE
[s.n.66847] 3.6 16:11:51 10° NNE 16:13:10 13° NE 16:13:11 13° NE
Cosmos 1626 Rocket 3.7 16:09:00 10° NNW 16:13:21 78° W 16:17:37 10° S
[s.n.66846] 3.6 16:12:15 10° N 16:13:36 13° NE 16:13:36 13° NE
[s.n.66843] 3.6 16:12:47 10° N 16:14:08 13° NE 16:14:08 13° NE
Meteor 1-28 Rocket 3.1 16:10:57 10° NNE 16:14:15 51° E 16:17:30 10° S
[s.n.66844] 3.6 16:13:13 10° N 16:14:34 13° NE 16:14:34 13° NE
[s.n.66842] 3.6 16:13:43 10° N 16:15:06 13° NE 16:15:06 13° NE
[s.n.66841] 3.6 16:14:10 10° N 16:15:33 13° NE 16:15:33 13° NE
[s.n.66840] 3.6 16:14:39 10° N 16:16:02 13° NE 16:16:02 13° NE
[s.n.66838] 3.6 16:15:07 10° N 16:16:31 13° NE 16:16:31 13° NE
[s.n.66839] 3.5 16:15:37 10° N 16:17:01 14° NE 16:17:01 14° NE
NOSS 2-2 (C) 3.2 16:14:11 10° WSW 16:17:13 51° NW 16:19:48 13° NE
[s.n.66837] 3.5 16:16:02 10° N 16:17:27 14° NE 16:17:27 14° NE
[s.n.66836] 3.5 16:16:32 10° N 16:17:57 14° NE 16:17:57 14° NE
[s.n.66835] 3.5 16:17:02 10° N 16:18:27 14° NE 16:18:27 14° NE
[s.n.66834] 3.5 16:17:30 10° N 16:18:56 14° NE 16:18:56 14° NE
[s.n.66833] 3.5 16:17:56 10° N 16:19:22 14° NE 16:19:22 14° NE
[s.n.66832] 3.5 16:18:28 10° N 16:19:54 14° NE 16:19:54 14° NE
[s.n.66831] 3.5 16:18:52 10° N 16:20:19 14° NE 16:20:19 14° NE
[s.n.66830] 3.5 16:19:18 10° N 16:20:45 15° NE 16:20:45 15° NE
[s.n.66828] 3.5 16:19:43 10° N 16:21:10 15° NE 16:21:10 15° NE
[s.n.66829] 3.5 16:20:14 10° N 16:21:42 15° NE 16:21:42 15° NE
[s.n.66827] 3.5 16:20:45 10° N 16:22:13 15° NE 16:22:13 15° NE
[s.n.66826] 3.5 16:21:15 10° N 16:22:43 15° NE 16:22:43 15° NE
Cosmos 1315 Rocket 3.9 16:19:24 10° SW 16:23:02 42° WNW 16:26:43 10° N
[s.n.66825] 3.4 16:21:40 10° N 16:23:09 15° NE 16:23:09 15° NE
[s.n.66824] 3.4 16:22:11 10° N 16:23:40 15° NE 16:23:40 15° NE
Cosmos 1606 Rocket 4.3 16:20:31 10° SSE 16:24:25 31° E 16:28:20 10° NNE
[s.n.66823] 3.4 16:22:41 10° N 16:24:10 15° NE 16:24:10 15° NE
[s.n.66822] 3.4 16:23:10 10° N 16:24:39 15° NE 16:24:39 15° NE
ATLAS CENTAUR R/B 3.5 16:22:23 10° WNW 16:25:01 23° WSW 16:27:34 10° S
[s.n.66821] 3.4 16:23:38 10° N 16:25:07 16° NE 16:25:07 16° NE
Thor Agena Rocket 3.6 16:22:41 10° SSE 16:27:53 90° ESE 16:33:05 10° NNW
Cosmos 2219 3.8 16:23:08 10° NNW 16:28:24 35° NE 16:33:39 10° ESE
Cosmos 1503 Rocket 4.2 16:23:44 10° S 16:28:48 51° ESE 16:33:38 11° NNE
CENTAUR R/B 3.2 16:24:14 10° WSW 16:30:11 53° NNW 16:36:56 13° NE
USA 290 3.5 16:29:17 10° NW 16:32:25 45° WSW 16:35:33 10° S
Cosmos 1484 Rocket 3.7 16:29:12 10° S 16:32:36 46° W 16:35:59 10° NNW
SL-16 R/B 2.6 16:26:20 10° NNE 16:32:37 88° WNW 16:38:49 10° SSW
GEOS 3 Rocket 4.0 16:28:50 14° NE 16:33:18 50° SE 16:38:29 10° SSW
Cosmos 1544 Rocket 3.7 16:29:08 10° SSW 16:33:33 80° WNW 16:38:01 10° N
AQUARIUS 4.2 16:30:36 10° SE 16:34:52 52° ENE 16:39:10 10° N
Cosmos 1844 Rocket 4.0 16:31:11 10° NNW 16:35:18 20° NNE 16:37:19 17° ENE
Lacrosse 5 rocket 1.6 16:31:53 10° W 16:35:30 45° NNW 16:37:41 20° NE
Cosmos 1980 Rocket 3.4 16:31:40 10° SSE 16:35:50 21° ESE 16:37:57 17° ENE
Meteor 1-25 Rocket 4.2 16:32:29 10° N 16:38:20 72° ENE 16:44:06 10° SSE
Meteor 1-5 Rocket 4.3 16:33:13 10° N 16:38:25 49° ENE 16:43:41 10° SE
Cosmos 1354 Rocket 4.4 16:33:28 10° S 16:38:27 45° ESE 16:42:35 15° NE
Lacrosse 4 Rocket 3.2 16:37:15 10° W 16:40:31 23° NW 16:43:44 10° NNE
BREEZE M DEB (TANK) 3.6 16:38:51 10° SSW 16:40:33 17° SSE 16:41:17 15° SE
CORIOLIS 4.3 16:36:48 10° SSE 16:42:08 81° WSW 16:47:31 10° NNW
IRIDIUM 104 4.3 16:37:49 10° N 16:43:05 84° E 16:48:18 10° S
Cosmos 2263 Rocket 2.3 16:37:59 10° NNW 16:43:35 55° NE 16:49:10 10° SE
Cosmos 2228 4.4 16:40:33 10° SW 16:44:30 37° WNW 16:48:30 10° N
Cosmos 1777 Rocket 3.9 16:39:43 10° SSW 16:44:58 78° ESE 16:49:52 12° NNE
Cosmos 1726 Rocket 4.1 16:43:57 10° SSE 16:48:18 40° E 16:51:54 14° NNE
CZ-2D R/B 2.6 16:45:39 10° SSE 16:48:46 80° ENE 16:51:57 10° NNW
Okean 1-7 Rocket 3.5 16:45:57 10° NNW 16:50:23 87° W 16:54:45 10° S
USA 238 DEB 4.4 16:45:47 10° S 16:50:56 29° ESE 16:53:47 21° ENE
USA 238 4.4 16:45:55 10° S 16:51:03 29° ESE 16:53:52 21° ENE
IRIDIUM 114 4.4 16:46:58 10° N 16:52:13 83° W 16:57:26 10° S
Cosmos 1602 Rocket 4.2 16:47:57 10° NNW 16:52:17 59° W 16:56:33 10° S
NOSS 3 (A) 4.1 16:50:09 10° NW 16:52:19 53° NE 16:52:32 50° ENE
ERS-1 4.4 16:49:24 10° SSE 16:54:23 82° ENE 16:59:23 10° NNW
Cosmos 1461 2.6 16:52:36 10° SW 16:56:30 79° SE 16:58:30 28° NE
Cosmos 1933 3.1 16:54:32 10° S 16:58:20 69° E 17:01:21 16° NNE
USA 215 3.5 16:53:50 21° ENE 16:58:20 60° N 17:04:46 10° WNW
Cosmos 1943 Rocket 4.3 16:57:48 10° NNW 16:59:02 11° N 17:00:15 10° NNE
Cosmos 2227 Rocket 2.3 16:54:22 10° NNW 17:00:03 78° WSW 17:05:41 10° SSE
IRS-1C 4.3 16:54:48 10° SSE 17:00:07 79° WSW 17:05:30 10° NNW
SKYMED 2 4.2 16:58:49 27° ENE 17:00:08 33° E 17:04:05 10° SSE
YAOGAN 1 2.9 16:56:55 10° SE 17:00:52 38° ENE 17:04:49 10° N
Cosmos-2242 4.2 16:57:38 10° SE 17:00:13 23° ESE 17:00:13 23° ESE
Cosmos 1743 4.5 16:59:55 10° NNW 17:02:45 28° W 17:05:35 10° SSW
NOSS 2-3 (E) 3.9 16:59:45 10° S 17:03:03 33° SE 17:03:38 31° ESE
NOSS 2-3 (D) 4.0 17:00:27 10° S 17:03:44 31° ESE 17:04:13 30° ESE
Cosmos 1486 Rocket 4.4 16:59:37 10° SW 17:04:47 63° WNW 17:09:39 12° NNE
SJ-12 3.9 17:01:11 10° S 17:04:56 71° WSW 17:08:45 10° NNW
Cosmos 2369 Rocket 4.3 17:01:49 10° WNW 17:05:31 17° NNW 17:09:16 10° NNE
Cosmos 2151 4.2 17:02:23 10° NNW 17:06:21 43° W 17:10:17 10° SSW
Cosmos 1655 Rocket 3.9 17:06:01 10° N 17:12:18 79° E 17:18:31 10° SSE
Meteor 2-10 4.1 17:08:12 10° N 17:13:30 60° ENE 17:18:57 10° SSE
Cosmos 1697 Rocket 2.6 17:10:07 10° SSW 17:15:43 78° ESE 17:19:15 24° NE
Cosmos 990 Rocket 3.8 17:10:55 10° SSW 17:16:01 74° ESE 17:19:09 24° NNE
Cosmos 1953 Rocket 3.4 17:11:43 10° N 17:16:10 78° E 17:20:37 10° SSE
CZ-4 R/B 4.2 17:12:25 10° SSE 17:16:21 77° ENE 17:20:19 10° NNW
MOS 1 Rocket 3.7 17:12:47 10° S 17:17:44 73° WSW 17:22:59 10° NNW
Aureole 1 Rocket 3.8 17:14:09 10° S 17:18:26 40° ESE 17:19:37 35° ENE
Cosmos 2278 Rocket 4.3 17:16:55 10° NNW 17:18:44 11° N 17:19:59 11° NNE
NOSS 2-2 (D) 4.1 17:22:00 10° W 17:24:44 27° NNW 17:25:11 26° NNW
ARIANE 5 R/B 3.5 17:20:16 10° S 17:25:10 49° W 17:30:11 10° NNW
Cosmos 1825 Rocket 4.3 17:21:12 10° NNW 17:25:28 54° W 17:29:39 10° S
Resurs 01 Rocket 3.7 17:29:46 14° N 17:29:46 14° N 17:30:34 10° N
Cosmos 1680 Rocket 3.8 17:26:43 10° NNW 17:31:41 42° NE 17:31:45 42° ENE
NOAA 6 4.0 17:27:33 10° SE 17:32:33 57° ENE 17:37:32 10° N
USA 81 3.9 17:27:54 10° N 17:33:12 79° E 17:38:28 10° S
CZ-2D R/B 3.4 17:32:10 10° SSE 17:36:22 86° WSW 17:40:32 10° NNW
Radarsat Rocket 4.5 17:29:58 10° SSE 17:38:02 80° ENE 17:45:12 10° NNW
IRAS Rocket 4.1 17:33:26 10° SSE 17:38:54 76° ENE 17:44:23 10° NNW
NOSS 3-2 (A) 4.1 17:34:10 10° W 17:39:21 44° NNW 17:42:25 26° NNE
Gbstr 26 Del rocket 3.0 17:35:54 10° SW 17:39:37 50° SSE 17:39:37 50° SSE
Cosmos 1844 4.3 17:35:06 10° NNW 17:39:50 35° NE 17:39:50 35° NE
Meteor 2-2 Rocket 4.2 17:34:50 10° S 17:40:18 55° E 17:41:52 41° NE
NOSS 3-2 (C) 3.4 17:35:16 10° WSW 17:40:29 68° NW 17:43:16 33° NE
SPOT 1/Viking Rocket 3.8 17:36:56 10° S 17:42:07 70° WSW 17:47:20 10° NNW
Cosmos 1076 Rocket 4.2 17:39:20 10° NNW 17:43:32 54° W 17:47:43 10° S
PSLV R/B 3.2 17:43:06 53° SSE 17:44:01 83° ENE 17:48:06 10° NNW
[s.n.66845] 4.4 17:43:16 10° NW 17:43:44 14° NW 17:43:44 14° NW
[s.n.66847] 4.4 17:43:43 10° NW 17:44:11 14° NW 17:44:11 14° NW
[s.n.66846] 4.4 17:44:09 10° NW 17:44:36 14° NW 17:44:36 14° NW
SJ-7 4.2 17:47:21 73° NW 17:47:21 73° NW 17:50:51 10° NNW
Cosmos 2082 3.6 17:41:37 10° NNW 17:47:23 83° ENE 17:50:42 26° SE
[s.n.66843] 4.5 17:44:41 10° NW 17:45:08 14° NW 17:45:08 14° NW
CZ-4C R/B 4.5 17:41:09 10° WNW 17:47:32 36° WSW 17:55:07 10° S
SL-19 R/B 4.1 17:42:15 10° SSE 17:47:41 88° ENE 17:53:28 10° NNW
COSMO-SKYMED 1 3.3 17:49:13 38° SSE 17:49:13 38° SSE 17:51:53 10° S
[s.n.66844] 4.5 17:45:09 10° NW 17:45:35 13° NW 17:45:35 13° NW
[s.n.66842] 4.5 17:45:41 10° NW 17:46:06 13° NW 17:46:06 13° NW
Cosmos 2058 Rocket 2.9 17:46:14 10° S 17:50:42 79° E 17:50:44 79° E
Cosmos 2227 4.4 17:50:36 10° NNW 17:55:43 50° NE 17:55:43 50° NE
Meteor 2-11 Rocket 4.3 17:53:25 10° N 17:59:36 71° ENE 18:05:44 10° SSE
Nadezhda 2 Rocket 4.3 17:55:09 10° N 18:01:20 90° ESE 18:07:27 10° S
Meteor 1-26 Rocket 3.9 17:59:15 10° S 18:04:38 83° ESE 18:05:35 62° NNE
GEOS 3 Rocket 4.3 18:09:53 41° N 18:11:17 51° NW 18:16:28 10° WSW
Cosmos 1553 Rocket 3.8 18:05:50 10° S 18:11:59 81° E 18:14:51 35° NNE
Cosmos 2219 3.7 18:07:14 10° NW 18:12:51 58° WSW 18:17:57 13° S
Lacrosse 5 rocket 3.0 18:09:30 10° WNW 18:11:16 24° NW 18:11:16 24° NW
Resurs 1-3 4.4 18:08:51 10° S 18:13:01 48° W 18:17:12 10° NNW
Cosmos 1980 Rocket 2.2 18:13:32 10° SW 18:19:12 79° WNW 18:19:44 71° N
Cosmos 1844 Rocket 3.1 18:14:40 10° NNW 18:18:59 49° N 18:18:59 49° N
USA 281 4.1 18:22:44 33° NNE 18:22:44 33° NNE 18:27:04 10° NNW
CENTAUR R/B 3.8 18:16:10 10° WNW 18:22:23 36° N 18:24:02 33° NNE
Cosmos 1745 Rocket 4.0 18:19:30 10° N 18:24:47 64° NNE 18:24:47 64° NNE
Cosmos 2263 Rocket 3.8 18:22:16 10° NW 18:27:16 33° WSW 18:32:16 10° SSW
Cosmos 1898 Rocket 3.9 18:26:05 10° SSW 18:30:11 56° SW 18:30:11 56° SW
Cosmos 2369 4.1 18:26:25 10° SSW 18:30:42 52° SSW 18:30:42 52° SSW
Cosmos 44 Rocket 4.4 18:28:50 10° NW 18:32:08 40° NNW 18:32:08 40° NNW
YAOGAN 1 4.5 18:33:07 10° SSW 18:36:48 28° W 18:40:30 10° NW
USA 215 3.1 18:41:10 77° NNE 18:41:10 77° NNE 18:47:39 10° WNW
USA 238 DEB 3.5 18:34:57 10° SW 18:41:11 79° NW 18:41:14 79° NW
USA 238 3.5 18:35:03 10° SW 18:41:17 79° NW 18:41:19 79° NW
Cosmos 1943 Rocket 4.5 18:41:39 10° NNW 18:42:28 12° N 18:42:28 12° N
Cosmos 1697 Rocket 4.3 18:55:29 10° W 19:00:16 28° NW 19:00:59 27° NNW
CENTAUR R/B 4.4 20:07:38 10° NW 20:11:08 29° NNW 20:11:08 29° NNW
